User: anonymous   Login
Location: DaVinci Observatory
(43.1080°N, 78.6453°W)
Time: 08:34:52
(UTC-04:00)
Language:

OTV 5 (USA 277) - Orbit

View from above orbital plane
View from above orbital plane
View from above satellite
View from above satellite

Ground track
Ground track

The orbit data is extracted from the following two-line orbital elements,

1 42932U 17052A   19194.79815726 0.00000000  00000-0  00000-0 0    07
2 42932  54.5045  80.9435 0026292 292.8105  67.1894 15.84664963    09
Epoch (UTC): 13 July 2019 19:09:20
Eccentricity: 0.0026292
inclination: 54.5045°
perigee height: 299 km
apogee height: 335 km
right ascension of ascending node: 80.9435°
argument of perigee: 292.8105°
revolutions per day: 15.84664963
mean anomaly at epoch: 67.1894°
orbit number at epoch: 0

The dashed part of the orbit path shows where the satellite is in the earth's shadow,  

DLR